Detroit, MI

4:23 AM EST on February 07, 2016 (GMT -0500)
Detroit Metro Wayne County

Weather History for KDTW - June, 2013

Change the Weather History Date:

Sunday, June 23, 2013

  Actual Average Record
Temperature  
Mean Temperature 80 °F 72 °F  
Max Temperature 89 °F 82 °F 95 °F (1923)
Min Temperature 70 °F 62 °F 42 °F (1877)
Degree Days  
Heating Degree Days 0 0  
Month to date heating degree days 23 34  
Since 1 June heating degree days 23 34  
Since 1 July heating degree days 5929 6136  
Cooling Degree Days 15 7  
Month to date cooling degree days 102 113  
Year to date cooling degree days 205 161  
Since 1 June cooling degree days 102 113  
Growing Degree Days 30 (Base 50)    
Moisture  
Dew Point 67 °F    
Average Humidity 72    
Maximum Humidity 97    
Minimum Humidity 47    
Precipitation  
Precipitation 0.00 in 0.12 in 1.08 in (2015)
Month to date precipitation 3.43 2.75  
Year to date precipitation 18.28 15.29  
Snow  
Snow 0.00 in 0.00 in 0.00 in ()
Month to date snowfall 0.0 0.0  
Since 1 June snowfall 0.0 0.0  
Since 1 July snowfall 47.7 42.5  
Snow Depth 0.00 in    
Sea Level Pressure  
Sea Level Pressure 30.04 in    
Wind  
Wind Speed 10 mph (SSW)    
Max Wind Speed 28 mph    
Max Gust Speed 32 mph    
Visibility 8 miles    
Events      
T = Trace of Precipitation, MM = Missing Value Source: NWS Daily Summary

Daily Weather History Graph

Daily Weather History Graph

Search for Another Location

Airport or City:

Trip Planner

Search our weather history database for the weather conditions in past years. The results will help you decide how hot, cold, wet, or windy it might be!

Date:

Astronomy

Jun. 23, 2013 Rise Set
Actual Time 5:57 AM EDT 9:13 PM EDT
Civil Twilight 5:23 AM EDT 9:48 PM EDT
Nautical Twilight 4:38 AM EDT 10:33 PM EDT
Astronomical Twilight 3:43 AM EDT 11:27 PM EDT
Moon 9:23 PM EDT (6/23) 6:15 AM EDT (6/23)
Length of Visible Light 16h 25m
Length of Day
15h 15m
Full, 100% of the Moon is Illuminated
Jun 23
Full
Jun 30
Last Quarter
Jul 8
New
Jul 15
First Quarter
Jul 22
Full

Hourly Weather History & Observations

Time (EDT) Temp. Heat Index Dew Point Humidity Pressure Visibility Wind Dir Wind Speed Gust Speed Precip Events Conditions
12:53 AM 72.0 °F - 68.0 °F 87% 30.05 in 8.0 mi SW 4.6 mph - N/A   Mostly Cloudy
1:53 AM 71.1 °F - 68.0 °F 90% 30.05 in 7.0 mi SSE 6.9 mph - N/A   Mostly Cloudy
2:53 AM 70.0 °F - 68.0 °F 93% 30.04 in 7.0 mi SSE 4.6 mph - N/A   Mostly Cloudy
3:53 AM 70.0 °F - 68.0 °F 93% 30.05 in 5.0 mi South 5.8 mph - N/A   Overcast
4:47 AM 69.8 °F - 66.2 °F 88% 30.05 in 2.5 mi South 5.8 mph - N/A   Overcast
4:53 AM 70.0 °F - 66.9 °F 90% 30.04 in 2.5 mi South 5.8 mph - N/A   Overcast
5:29 AM 69.8 °F - 68.0 °F 94% 30.06 in 3.0 mi South 5.8 mph - N/A   Overcast
5:53 AM 71.1 °F - 68.0 °F 90% 30.06 in 3.0 mi SW 6.9 mph - N/A   Overcast
6:53 AM 71.1 °F - 66.9 °F 87% 30.07 in 3.0 mi SSW 6.9 mph - N/A   Overcast
7:53 AM 72.0 °F - 66.9 °F 84% 30.08 in 6.0 mi South 10.4 mph - N/A   Haze
8:53 AM 75.0 °F - 68.0 °F 79% 30.08 in 10.0 mi South 11.5 mph - N/A   Overcast
9:53 AM 75.9 °F - 68.0 °F 76% 30.07 in 10.0 mi South 9.2 mph - N/A   Mostly Cloudy
10:53 AM 81.0 °F 83.8 °F 68.0 °F 65% 30.07 in 10.0 mi South 11.5 mph - N/A   Mostly Cloudy
11:53 AM 82.9 °F 85.4 °F 66.9 °F 58% 30.07 in 10.0 mi South 12.7 mph - N/A   Mostly Cloudy
12:53 PM 84.0 °F 86.5 °F 66.9 °F 56% 30.06 in 10.0 mi SW 11.5 mph - N/A   Scattered Clouds
1:53 PM 86.0 °F 89.4 °F 68.0 °F 55% 30.05 in 10.0 mi SSW 11.5 mph 19.6 mph N/A   Scattered Clouds
2:53 PM 87.1 °F 91.3 °F 69.1 °F 55% 30.04 in 10.0 mi SW 12.7 mph - N/A   Scattered Clouds
3:53 PM 89.1 °F 93.7 °F 69.1 °F 52% 30.02 in 10.0 mi South 13.8 mph 21.9 mph N/A   Scattered Clouds
4:53 PM 89.1 °F 92.9 °F 68.0 °F 50% 30.01 in 10.0 mi SSW 15.0 mph - N/A   Scattered Clouds
5:53 PM 89.1 °F 92.1 °F 66.9 °F 48% 29.99 in 10.0 mi SW 12.7 mph - N/A   Scattered Clouds
6:53 PM 88.0 °F 90.3 °F 66.0 °F 48% 29.98 in 10.0 mi SSW 10.4 mph - N/A   Partly Cloudy
7:53 PM 87.1 °F 89.9 °F 66.9 °F 51% 29.99 in 10.0 mi South 11.5 mph - N/A   Scattered Clouds
8:53 PM 84.9 °F 87.1 °F 66.0 °F 53% 29.99 in 10.0 mi SSW 6.9 mph - N/A   Scattered Clouds
9:53 PM 82.0 °F 84.9 °F 68.0 °F 62% 30.01 in 10.0 mi South 5.8 mph - N/A   Scattered Clouds
10:53 PM 78.1 °F - 64.0 °F 62% 30.05 in 10.0 mi SSW 17.3 mph - N/A   Mostly Cloudy
11:53 PM 75.9 °F - 64.0 °F 67% 30.02 in 10.0 mi SSW 9.2 mph - N/A   Mostly Cloudy